Location: Bratislava
(0.0000°N, 17.1167°E)
Time: 04:35:39
(UTC+01:00)

SJ-11-01 - Pass Details

Date: 24 January 2021
Orbit: 684 x 700 km, 98.0° (Epoch: 04 March)

Event Time Altitude Azimuth Distance (km) Brightness Sun altitude
Rises 18:57:59 0° 162° (SSE) 3,077 7.7 -12.8°
Reaches altitude 10° 19:00:16 10° 159° (SSE) 2,156 6.8 -13.3°
Maximum altitude 19:04:56 63° 78° (ENE) 775 4.2 -14.4°
Drops below altitude 10° 19:09:33 10° 358° (N) 2,137 6.6 -15.5°
Sets 19:11:48 0° 354° (N) 3,047 7.5 -16.1°
